Total_Precipitation_Accumulation
0.06 0.05 0.14 0.28 0.33 0.25 0.20 0.24 0.29 0.20 0.33 0.29 0.27 0.31 0.47 0.35 0.28 0.23 0.23 0.25 0.24 0.18 0.06 0.06 0.04 0.04 0.07 0.11 0.09 0.04 0.04 0.08 0.04 0.07 0.07 0.24 0.77 0.62 0.26 0.41 0.11 0.06 0.13
0.01 0.00 0.03 0.05 0.05 0.03 0.05 0.03 0.03 0.05 0.13 0.23 0.18 0.24 0.46 0.48 0.47 0.47 0.49 0.43 0.29 0.36 0.29 0.25 0.23 0.29 0.19 0.17 0.11 0.10 0.10 0.12 0.07 0.05 0.01 0.10 0.22 0.64 0.19 0.08 0.09 0.05 0.14
0.01 0.03 0.13 0.08 0.00 0.00 0.00 0.00 0.01 0.03 0.07 0.10 0.11 0.12 0.21 0.31 0.35 0.41 0.58 0.73 0.68 0.65 0.44 0.46 0.44 0.44 0.30 0.37 0.37 0.36 0.35 0.45 0.32 0.27 0.13 0.18 0.10 0.08 0.20 0.23 0.19 0.03 0.02
0.00 0.01 0.03 0.01 0.00 0.00 0.00 0.00 0.00 0.00 0.00 0.01 0.03 0.07 0.07 0.12 0.13 0.16 0.16 0.14 0.30 0.44 0.66 0.72 0.61 0.61 0.57 0.81 0.62 0.46 0.45 0.39 0.42 0.42 0.30 0.31 0.40 0.54 0.51 0.34 0.27 0.24 0.13
0.15 0.06 0.03 0.00 0.00 0.00 0.00 0.00 0.00 0.00 0.00 0.00 0.00 0.00 0.01 0.03 0.04 0.12 0.12 0.13 0.12 0.13 0.15 0.12 0.13 0.10 0.17 0.20 0.18 0.23 0.31 0.36 0.27 0.26 0.21 0.16 0.13 0.27 0.29 0.27 0.24 0.14 0.16
0.22 0.08 0.01 0.00 0.00 0.00 0.00 0.00 0.00 0.00 0.00 0.00 0.00 0.00 0.00 0.00 0.00 0.00 0.01 0.03 0.05 0.06 0.06 0.09 0.11 0.15 0.08 0.03 0.03 0.04 0.07 0.18 0.19 0.17 0.06 0.09 0.07 0.08 0.10 0.10 0.18 0.15 0.04
0.22 0.16 0.03 0.00 0.00 0.00 0.00 0.00 0.00 0.00 0.00 0.00 0.00 0.00 0.00 0.00 0.00 0.00 0.00 0.00 0.00 0.00 0.00 0.01 0.01 0.01 0.04 0.08 0.08 0.08 0.04 0.04 0.04 0.09 0.06 0.05 0.10 0.18 0.29 0.17 0.12 0.23 0.16
0.10 0.10 0.02 0.00 0.00 0.00 0.00 0.00 0.00 0.00 0.00 0.00 0.00 0.00 0.00 0.00 0.00 0.00 0.00 0.00 0.00 0.00 0.00 0.00 0.00 0.00 0.01 0.03 0.05 0.03 0.03 0.02 0.05 0.11 0.08 0.03 0.02 0.08 0.24 0.36 0.30 0.18 0.11
0.06 0.04 0.02 0.01 0.00 0.00 0.00 0.00 0.00 0.00 0.00 0.00 0.00 0.00 0.01 0.00 0.00 0.00 0.00 0.00 0.00 0.00 0.00 0.00 0.00 0.00 0.00 0.00 0.02 0.01 0.02 0.01 0.04 0.09 0.10 0.06 0.03 0.08 0.16 0.24 0.17 0.25 0.03
0.58 0.27 0.10 0.04 0.02 0.01 0.00 0.00 0.00 0.00 0.00 0.00 0.00 0.00 0.00 0.00 0.00 0.00 0.00 0.00 0.00 0.00 0.00 0.00 0.00 0.00 0.00 0.00 0.00 0.00 0.01 0.00 0.02 0.05 0.06 0.03 0.04 0.01 0.03 0.09 0.10 0.10 0.04
0.13 0.09 0.11 0.05 0.02 0.02 0.02 0.00 0.00 0.00 0.00 0.01 0.01 0.01 0.01 0.00 0.00 0.00 0.00 0.00 0.01 0.01 0.00 0.00 0.00 0.00 0.00 0.00 0.00 0.00 0.00 0.00 0.01 0.03 0.02 0.01 0.03 0.04 0.01 0.03 0.07 0.15 0.12
0.04 0.10 0.29 0.32 0.21 0.13 0.12 0.09 0.04 0.01 0.01 0.02 0.02 0.01 0.00 0.01 0.00 0.00 0.00 0.00 0.01 0.01 0.01 0.01 0.00 0.00 0.00 0.00 0.00 0.00 0.00 0.00 0.01 0.01 0.01 0.02 0.02 0.01 0.01 0.04 0.11 0.20 0.30
0.05 0.02 0.05 0.18 0.12 0.12 0.10 0.08 0.07 0.04 0.01 0.01 0.01 0.01 0.00 0.00 0.00 0.00 0.00 0.00 0.00 0.00 0.00 0.00 0.00 0.00 0.00 0.00 0.00 0.00 0.00 0.00 0.01 0.01 0.01 0.01 0.01 0.00 0.01 0.02 0.11 0.36 0.58
0.05 0.04 0.02 0.02 0.01 0.02 0.04 0.04 0.03 0.02 0.01 0.01 0.00 0.00 0.00 0.00 0.00 0.00 0.00 0.00 0.00 0.00 0.00 0.00 0.00 0.00 0.00 0.00 0.00 0.00 0.00 0.00 0.00 0.01 0.01 0.01 0.01 0.01 0.01 0.02 0.04 0.10 0.22
0.11 0.10 0.05 0.03 0.03 0.02 0.02 0.02 0.01 0.00 0.00 0.00 0.00 0.00 0.00 0.01 0.00 0.00 0.00 0.00 0.00 0.00 0.00 0.00 0.00 0.00 0.00 0.00 0.01 0.01 0.02 0.04 0.04 0.03 0.04 0.02 0.01 0.01 0.01 0.04 0.08 0.12 0.14
0.18 0.14 0.09 0.05 0.02 0.00 0.00 0.00 0.00 0.00 0.00 0.00 0.00 0.00 0.00 0.00 0.00 0.00 0.00 0.00 0.00 0.00 0.00 0.00 0.00 0.00 0.00 0.00 0.01 0.02 0.04 0.05 0.05 0.09 0.09 0.06 0.03 0.01 0.01 0.03 0.11 0.18 0.13
0.08 0.06 0.04 0.02 0.01 0.00 0.00 0.00 0.00 0.00 0.00 0.00 0.00 0.00 0.00 0.00 0.00 0.00 0.00 0.00 0.00 0.00 0.00 0.00 0.00 0.00 0.00 0.00 0.01 0.04 0.05 0.09 0.12 0.11 0.13 0.12 0.14 0.15 0.19 0.18 0.21 0.21 0.17
0.05 0.06 0.04 0.03 0.02 0.01 0.00 0.00 0.00 0.00 0.00 0.00 0.00 0.00 0.00 0.00 0.00 0.00 0.00 0.00 0.00 0.00 0.00 0.00 0.00 0.01 0.02 0.05 0.05 0.05 0.05 0.08 0.11 0.12 0.16 0.18 0.27 0.34 0.31 0.36 0.34 0.27 0.18
0.04 0.07 0.02 0.00 0.00 0.00 0.00 0.00 0.00 0.00 0.00 0.00 0.00 0.00 0.00 0.00 0.00 0.00 0.00 0.00 0.00 0.00 0.00 0.01 0.01 0.01 0.03 0.05 0.06 0.08 0.10 0.12 0.14 0.16 0.15 0.15 0.19 0.38 0.51 0.50 0.30 0.24 0.24
0.04 0.05 0.01 0.00 0.00 0.00 0.00 0.00 0.00 0.00 0.00 0.00 0.00 0.00 0.00 0.00 0.00 0.00 0.00 0.00 0.00 0.00 0.00 0.01 0.01 0.03 0.04 0.06 0.09 0.10 0.11 0.15 0.15 0.14 0.13 0.13 0.15 0.25 0.28 0.30 0.28 0.22 0.20
0.02 0.01 0.00 0.00 0.00 0.00 0.00 0.00 0.00 0.00 0.00 0.00 0.00 0.00 0.00 0.00 0.00 0.00 0.00 0.00 0.00 0.00 0.00 0.00 0.00 0.01 0.01 0.03 0.04 0.05 0.05 0.21 0.41 0.50 0.40 0.24 0.17 0.19 0.23 0.31 0.30 0.31 0.31
0.00 0.00 0.00 0.00 0.00 0.00 0.00 0.00 0.00 0.00 0.00 0.00 0.00 0.00 0.00 0.00 0.00 0.00 0.00 0.00 0.00 0.00 0.00 0.00 0.01 0.02 0.02 0.06 0.09 0.07 0.04 0.04 0.10 0.21 0.28 0.34 0.33 0.27 0.23 0.25 0.25 0.26 0.25
0.00 0.00 0.00 0.00 0.00 0.00 0.00 0.00 0.00 0.00 0.00 0.00 0.00 0.00 0.00 0.00 0.00 0.00 0.00 0.00 0.00 0.00 0.00 0.00 0.01 0.02 0.02 0.02 0.02 0.01 0.01 0.01 0.01 0.01 0.06 0.15 0.15 0.16 0.16 0.14 0.12 0.12 0.13
0.00 0.00 0.00 0.00 0.00 0.00 0.00 0.00 0.00 0.00 0.00 0.00 0.00 0.00 0.00 0.00 0.00 0.00 0.00 0.00 0.00 0.00 0.00 0.00 0.00 0.00 0.01 0.02 0.04 0.05 0.07 0.05 0.02 0.01 0.02 0.08 0.09 0.05 0.02 0.01 0.01 0.01 0.01
0.00 0.00 0.00 0.00 0.00 0.00 0.00 0.00 0.00 0.00 0.00 0.00 0.00 0.00 0.00 0.00 0.00 0.00 0.00 0.00 0.00 0.00 0.00 0.00 0.00 0.00 0.00 0.00 0.01 0.02 0.07 0.10 0.12 0.11 0.06 0.07 0.06 0.04 0.03 0.03 0.03 0.03 0.04
0.00 0.00 0.00 0.00 0.00 0.00 0.00 0.00 0.00 0.00 0.00 0.00 0.00 0.00 0.00 0.00 0.00 0.00 0.00 0.00 0.00 0.00 0.00 0.00 0.00 0.00 0.00 0.00 0.00 0.00 0.00 0.01 0.01 0.01 0.01 0.00 0.00 0.00 0.00 0.00 0.00 0.00 0.01